{"data":{"norad_id":54169,"epoch":"2026-09-20T12:32:06.172224Z","epoch_age_seconds":87363,"freshness":"FRESH","line1":"1 54169U 22141N   26263.52229366  .00000148  00000+0  15508-4 0  9994","line2":"2 54169  53.1588 193.8864 0001239  94.2922 265.8223 15.34387085215481","mean_motion":15.34387085,"eccentricity":0.0001239,"inclination_deg":53.1588,"raan_deg":193.8864,"arg_perigee_deg":94.2922,"mean_anomaly_deg":265.8223,"bstar":1.5508e-5,"rev_number":21548,"period_min":93.848548001823,"perigee_km":461.89404171623,"apogee_km":463.5892114399,"semimajor_km":6840.8786265781,"source":"CELESTRAK","updated_at":"2026-09-21T09:00:33.090083Z"}}